Flight Track Log - Related Links

Times and Time Zones

All times are in EDT time to prevent confusion due to time zone crossing. See the N770NC flight status page for this flight to view local times or setup timezone preferences in your user account.

Time Position Orientation Groundspeed Altitude Reporting Facility
EDT Latitude Longitude Course Direction KTS MPH feet Rate Location/Type
Thu 02:00:55 PM 33.6500 -84.4667 327° Northwest 175 201 2,500  Level Atlanta TRACON
Thu 02:01:55 PM 33.6667 -84.5500 284° West 248 285 4,000 2,263 Climbing Atlanta TRACON
Thu 02:02:49 PM 33.7000 -84.6167 301° West 247 284 6,800 2,368 Climbing Atlanta TRACON
Thu 02:03:00 PM 34.0319 -84.5211 349° North  Level FlightAware Approximate
Thu 02:03:49 PM 33.7667 -84.6333 348° North 287 330 8,500  Level Atlanta TRACON
Thu 02:04:00 PM 34.1253 -84.5453 347° North  Level FlightAware Approximate
Thu 02:04:55 PM 33.8500 -84.6333 360° North 309 356 10,000  Level Atlanta TRACON
Thu 02:05:00 PM 34.2201 -84.5823 327° Northwest  Level FlightAware Approximate
Thu 02:05:56 PM 33.9556 -84.6525 351° North 350 403 11,600  Level Atlanta Center
Thu 02:06:00 PM 34.3047 -84.6483 327° Northwest  Level FlightAware Approximate
Thu 02:06:56 PM 34.0536 -84.6656 354° North 350 403 13,500  Level Atlanta Center
Thu 02:07:56 PM 34.1558 -84.6714 357° North 355 409 15,300 1,800 Climbing Atlanta Center
Thu 02:08:56 PM 34.2581 -84.6822 355° North 368 423 17,100 1,750 Climbing Atlanta Center
Thu 02:09:56 PM 34.3411 -84.7533 325° Northwest 354 407 18,800 1,500 Climbing Atlanta Center
Thu 02:10:56 PM 34.4325 -84.8169 330° Northwest 368 423 20,100 1,400 Climbing Atlanta Center
Thu 02:11:56 PM 34.5156 -84.8733 331° Northwest 377 434 21,600 1,400 Climbing Atlanta Center
Thu 02:12:56 PM 34.6092 -84.9322 333° Northwest 382 440 22,900 1,250 Climbing Atlanta Center
Thu 02:13:56 PM 34.7069 -84.9814 338° Northwest 377 434 24,100 1,100 Climbing Atlanta Center
Thu 02:14:56 PM 34.7814 -85.0756 314° West 377 434 25,100 1,000 Climbing Atlanta Center
Thu 02:15:56 PM 34.8533 -85.1703 313° West 382 440 26,100 800 Climbing Atlanta Center
Thu 02:16:56 PM 34.9339 -85.2700 315° West 393 452 26,700 750 Climbing Atlanta Center
Thu 02:17:56 PM 35.0081 -85.3700 312° West 399 459 27,600 900 Climbing Atlanta Center
Thu 02:18:56 PM 35.0883 -85.4703 314° West 404 465 28,500 900 Climbing Atlanta Center
Thu 02:19:56 PM 35.1728 -85.5633 318° Northwest 404 465 29,400 700 Climbing Atlanta Center
Thu 02:20:56 PM 35.2589 -85.6742 314° West 404 465 29,900 300 Climbing Atlanta Center
Thu 02:21:56 PM 35.3367 -85.7803 312° West 409 471 30,000 333 Climbing Atlanta Center
Thu 02:22:44 PM 35.3989 -85.8486 318° Northwest 418 481 30,500 889 Climbing Memphis Center
Thu 02:23:44 PM 35.4922 -85.9483 319° Northwest 412 474 31,600 750 Climbing Memphis Center
Thu 02:24:44 PM 35.5706 -86.0461 315° West 405 466 32,000 200 Climbing Memphis Center
Thu 02:25:44 PM 35.6511 -86.1442 315° West 405 466 32,000  Level Memphis Center
Thu 02:26:44 PM 35.7375 -86.2344 320° Northwest 399 459 32,000  Level Memphis Center
Thu 02:27:44 PM 35.8181 -86.3303 316° Northwest 406 467 32,000  Level Memphis Center
Thu 02:28:44 PM 35.8936 -86.4161 317° Northwest 412 474 32,000  Level Memphis Center
Thu 02:29:44 PM 35.9839 -86.5014 323° Northwest 401 461 32,000  Level Memphis Center
Thu 02:30:44 PM 36.0658 -86.5928 318° Northwest 395 455 32,000  Level Memphis Center
Thu 02:31:44 PM 36.1400 -86.6972 311° West 400 460 32,000  Level Memphis Center
Thu 02:32:44 PM 36.2097 -86.8022 309° West 405 466 32,000  Level Memphis Center
Thu 02:33:44 PM 36.2983 -86.9167 314° West 405 466 32,000  Level Memphis Center
Thu 02:34:44 PM 36.3928 -87.0133 321° Northwest 437 503 32,000  Level Memphis Center
Thu 02:35:44 PM 36.4644 -87.1186 310° West 419 482 32,000 650 Level Memphis Center
Thu 02:36:44 PM 36.5256 -87.2325 304° West 401 461 33,300 1,000 Climbing Memphis Center
Thu 02:37:44 PM 36.5861 -87.3206 311° West 390 449 34,000 350 Climbing Memphis Center
Thu 02:38:44 PM 36.6614 -87.4158 315° West 382 440 34,000  Level Memphis Center
Thu 02:39:44 PM 36.7264 -87.5172 309° West 377 434 34,000  Level Memphis Center
Thu 02:40:44 PM 36.7994 -87.6156 313° West 383 441 34,000  Level Memphis Center
Thu 02:41:44 PM 36.8742 -87.7039 317° Northwest 378 435 34,000  Level Memphis Center
Thu 02:42:44 PM 36.9431 -87.8053 310° West 378 435 34,000  Level Memphis Center
Thu 02:43:44 PM 37.0203 -87.9119 312° West 384 442 34,000  Level Memphis Center
Thu 02:44:44 PM 37.0969 -88.0033 316° Northwest 378 435 34,000  Level Memphis Center
Thu 02:45:44 PM 37.1614 -88.1028 309° West 378 435 34,000  Level Memphis Center
Thu 02:46:44 PM 37.2256 -88.1922 312° West 384 442 34,000  Level Memphis Center
Thu 02:47:44 PM 37.2978 -88.2814 316° Northwest 377 434 34,000  Level Memphis Center
Thu 02:50:03 PM 37.4514 -88.4911 313° West 369 425 34,000  Level Kansas City Center
Thu 02:51:03 PM 37.5278 -88.5797 317° Northwest 372 428 34,000  Level Kansas City Center
Thu 02:52:04 PM 37.6053 -88.6886 312° West 367 422 34,000  Level Kansas City Center
Thu 02:53:08 PM 37.6792 -88.7881 313° West 369 425 34,000  Level Kansas City Center
Thu 02:54:09 PM 37.7456 -88.8850 311° West 369 425 34,000  Level Kansas City Center
Thu 02:55:13 PM 37.7950 -89.0011 298° West 375 432 34,000  Level Kansas City Center
Thu 02:56:14 PM 37.8553 -89.1228 302° West 375 432 34,000  Level Kansas City Center
Thu 02:57:15 PM 37.9178 -89.2406 304° West 374 430 34,000  Level Kansas City Center
Thu 02:58:19 PM 37.9783 -89.3469 306° West 374 430 34,000  Level Kansas City Center
Thu 02:59:22 PM 38.0611 -89.4400 319° Northwest 370 426 34,000  Level Kansas City Center
Thu 03:00:23 PM 38.1450 -89.5322 319° Northwest 370 426 34,000  Level Kansas City Center
Thu 03:01:26 PM 38.2278 -89.6108 323° Northwest 372 428 34,000  Level Kansas City Center
Thu 03:02:27 PM 38.3044 -89.6919 320° Northwest 371 427 34,000  Level Kansas City Center
Thu 03:03:31 PM 38.3786 -89.7847 316° Northwest 373 429 34,000  Level Kansas City Center
Thu 03:04:32 PM 38.4481 -89.8842 312° West 375 432 34,000  Level Kansas City Center
Thu 03:05:36 PM 38.5197 -89.9786 314° West 374 430 34,000  Level Kansas City Center
Thu 03:06:37 PM 38.5942 -90.1050 307° West 374 430 34,000  Level Kansas City Center
Thu 03:07:38 PM 38.6597 -90.2075 309° West 376 433 34,000  Level Kansas City Center
Thu 03:08:41 PM 38.7467 -90.2919 323° Northwest 383 441 34,000  Level Kansas City Center
Thu 03:09:42 PM 38.8164 -90.3956 311° West 388 447 34,000 -48 Level Kansas City Center
Thu 03:10:46 PM 38.8689 -90.5117 300° West 381 438 33,900 -480 Descending Kansas City Center
Thu 03:11:47 PM 38.9589 -90.5961 324° Northwest 391 450 33,000 -393 Descending Kansas City Center
Thu 03:12:48 PM 39.0603 -90.5286 27° Northeast 414 476 33,100  Climbing Kansas City Center
Thu 03:13:52 PM 39.1644 -90.4725 23° Northeast 406 467 33,000 -48 Descending Kansas City Center
Thu 03:14:52 PM 39.2717 -90.4383 14° North 398 458 33,000  Level Kansas City Center
Thu 03:15:54 PM 39.3758 -90.4003 16° North 392 451 33,000  Level Kansas City Center
Thu 03:16:57 PM 39.4989 -90.3383 21° North 394 453 33,000  Level Kansas City Center
Thu 03:17:59 PM 39.6019 -90.2972 17° North 390 449 33,000  Level Kansas City Center
Thu 03:19:02 PM 39.7050 -90.2483 20° North 392 451 33,000  Level Kansas City Center
Thu 03:20:03 PM 39.8150 -90.1814 25° Northeast 392 451 33,000  Level Kansas City Center
Thu 03:21:06 PM 39.9161 -90.1361 19° North 388 447 33,000  Level Kansas City Center
Thu 03:22:07 PM 40.0186 -90.0969 16° North 384 442 33,000  Level Kansas City Center
Thu 03:23:10 PM 40.1178 -90.0425 23° Northeast 385 443 33,000  Level Kansas City Center
Thu 03:24:11 PM 40.2158 -89.9825 25° Northeast 389 448 33,000  Level Kansas City Center
Thu 03:26:00 PM 40.3923 -89.9074 18° North  Level FlightAware Approximate
Thu 03:26:27 PM 40.4553 -89.8933 18° North 372 428 33,000  Level Chicago Center
Thu 03:27:29 PM 40.5608 -89.8375 22° Northeast 390 449 31,800 -1,113 Descending Chicago Center
Thu 03:28:31 PM 40.6369 -89.7053 53° Northeast 460 529 30,700 -1,065 Descending Chicago Center
Thu 03:29:33 PM 40.7128 -89.5747 53° Northeast 452 520 29,600 -1,113 Descending Chicago Center
Thu 03:30:35 PM 40.8181 -89.4400 44° Northeast 470 541 28,400 -1,161 Descending Chicago Center
Thu 03:31:37 PM 40.9114 -89.3275 42° Northeast 458 527 27,200 -1,839 Descending Chicago Center
Thu 03:32:39 PM 40.9983 -89.2142 45° Northeast 443 510 24,600 -2,806 Descending Chicago Center
Thu 03:33:41 PM 41.0861 -89.0942 46° Northeast 426 490 21,400 -2,806 Descending Chicago Center
Thu 03:34:43 PM 41.1628 -88.9928 45° Northeast 397 457 18,800 -2,544 Descending Chicago Center
Thu 03:35:46 PM 41.2425 -88.9039 40° Northeast 378 435 16,100 -2,640 Descending Chicago Center
Thu 03:36:48 PM 41.3139 -88.8108 44° Northeast 363 418 13,300 -2,371 Descending Chicago Center
Thu 03:37:50 PM 41.4031 -88.7064 41° Northeast 358 412 11,200 -1,065 Descending Chicago Center
Thu 03:38:52 PM 41.4722 -88.6247 41° Northeast 336 387 11,100 -48 Descending Chicago Center
Thu 03:39:54 PM 41.5336 -88.5614 38° Northeast 284 327 11,100  Level Chicago Center
Thu 03:40:56 PM 41.5628 -88.4642 68° East 295 339 11,100 -823 Level Chicago Center
Thu 03:41:58 PM 41.5864 -88.3642 72° East 283 326 9,400 -1,452 Descending Chicago Center
Thu 03:43:00 PM 41.6267 -88.2808 57° Northeast 273 314 8,100 -1,113 Descending Chicago Center
Thu 03:44:02 PM 41.6869 -88.2161 39° Northeast 231 266 7,100 -823 Descending Chicago Center
Thu 03:45:04 PM 41.7328 -88.1578 44° Northeast 229 264 6,400 -960 Descending Chicago Center
Thu 03:46:07 PM 41.7814 -88.1042 39° Northeast 226 260 5,100 -1,238 Descending Chicago Center

Login

Don't have an account? Register now (free) for customized features, flight alerts, and more!